Tracking 19709 objects as of 19-Jun-2019
HD Live streaming from Space Station
objects crossing your sky now

COSMOS 1694

Track COSMOS 1694 now!
10-day predictions
COSMOS 1694 is classified as:


NORAD ID: 16142
Int'l Code: 1985-094E
Perigee: 1,405.2 km
Apogee: 1,424.7 km
Inclination: 82.6 °
Period: 114.0 minutes
Semi major axis: 7785 km
RCS: 0.2341 m2 (medium)
Launch date: October 9, 1985
Source: Commonwealth of Independent States (former USSR) (CIS)
Launch site: PLESETSK MISSILE AND SPACE COMPLEX (PKMTR)
aabbcc
Your satellite tracking list
Your tracking list is empty




NASA's NSSDC Master Catalog

Two Line Element Set (TLE):
1 16142U 85094E   19169.88228800 +.00000006 +00000-0 -23567-4 0  9996
2 16142 082.6095 090.1789 0012500 114.3696 318.5492 12.63677091553915
Source of the keplerian elements: AFSPC